Wind_Speed
26 27 27 27 26 26 25 23 23 21 20 19 20 19 19 22 22 8 3 2 5 20 14 12 7 7 9 6 8 4 5 3 5 0 13 11 8 5 5 11 4 4 4 23 25
27 28 29 28 29 28 26 24 24 22 21 19 18 18 19 21 16 9 4 2 6 17 16 13 8 9 6 4 4 6 4 6 3 8 8 10 7 10 7 11 7 9 18 28 24
28 29 29 29 30 28 27 26 25 24 22 19 17 16 15 16 9 4 6 6 9 15 5 8 6 9 8 4 4 3 6 5 4 6 10 11 11 7 12 9 11 16 20 26 26
29 30 31 31 30 29 28 27 25 23 22 19 16 14 12 5 4 7 7 4 7 10 5 6 6 8 7 2 3 4 4 5 8 6 8 9 10 7 5 9 11 16 22 26 21
29 32 33 33 30 30 30 28 26 24 22 19 15 10 4 7 8 5 6 5 8 9 8 6 8 7 6 3 4 3 7 6 7 6 7 8 7 7 6 2 12 17 22 22 20
30 32 33 34 33 32 30 27 27 26 23 18 12 5 6 12 3 6 6 6 7 8 5 6 6 8 8 2 6 6 8 10 8 9 8 6 7 6 4 7 14 18 21 21 19
30 32 33 34 34 34 29 28 26 23 19 15 8 4 9 17 2 5 6 8 8 7 9 7 7 9 7 3 5 11 10 8 8 10 5 5 8 4 10 11 15 18 19 20 19
30 32 34 34 34 31 30 26 24 15 16 9 5 5 8 5 10 17 17 19 16 15 13 14 9 11 10 4 7 10 9 11 12 9 6 7 9 11 13 14 15 16 18 18 18
31 32 34 34 35 30 28 26 11 8 9 7 3 7 9 4 10 12 18 15 14 14 11 4 8 13 7 13 10 9 10 7 8 11 6 11 7 13 15 15 15 17 18 16 17
31 32 33 34 34 29 26 15 7 5 4 3 3 5 8 3 3 4 6 11 11 12 11 13 9 12 13 13 13 9 13 7 6 9 11 9 5 13 17 18 18 17 18 18 18
31 33 34 33 30 26 26 7 4 6 3 9 3 14 2 8 7 9 10 11 12 15 18 19 14 19 20 17 17 7 8 8 4 3 10 11 8 15 16 17 19 21 20 21 21
30 32 33 33 21 21 12 6 6 5 10 10 15 19 24 10 5 13 10 12 13 19 23 18 22 23 20 18 16 14 11 11 4 3 11 8 10 10 18 20 18 20 21 22 21
31 32 31 32 11 13 12 10 7 4 7 9 11 12 13 18 10 11 17 17 14 21 24 27 22 23 21 17 17 16 14 10 11 6 12 9 14 13 17 18 18 19 20 21 22
30 32 32 28 4 12 3 9 11 4 5 6 6 5 10 10 12 26 18 13 14 19 23 27 24 24 23 23 20 19 14 11 7 10 8 5 8 14 18 21 21 20 21 21 22
30 30 29 17 10 6 7 13 9 5 6 5 5 3 0 15 3 18 30 16 18 15 17 21 26 22 22 26 23 19 6 11 10 11 12 11 7 6 16 16 23 23 22 21 22
30 29 24 8 5 7 13 12 4 7 11 2 1 2 7 13 16 3 19 23 16 17 18 22 16 21 28 25 23 18 8 9 9 11 11 15 8 8 12 16 20 23 23 22 22
30 26 11 5 8 13 10 5 6 8 4 2 3 3 7 9 15 15 19 24 18 19 19 21 23 17 17 25 21 19 17 10 10 10 11 6 7 15 4 5 9 23 25 24 22
29 18 7 5 12 8 6 7 11 2 12 7 6 12 9 3 12 20 19 22 28 23 15 20 22 23 17 26 20 26 23 13 11 12 12 7 8 6 2 3 6 13 25 24 23
25 9 3 5 10 5 6 9 6 7 6 9 16 11 10 4 5 6 23 21 27 26 21 20 29 28 22 21 26 24 25 23 13 9 11 11 11 12 14 2 7 15 24 25 24
18 8 2 10 5 9 7 8 3 2 6 6 11 1 7 3 6 7 18 7 19 29 24 14 17 19 27 19 25 24 22 21 12 18 14 13 10 8 9 3 8 15 23 24 22
8 5 5 9 5 6 7 1 3 4 4 4 6 10 7 4 6 6 7 9 10 11 22 23 16 22 22 21 23 20 20 20 19 15 12 12 12 13 3 4 11 16 21 23 23
6 5 5 8 7 1 5 0 2 7 6 8 6 10 11 6 6 4 3 7 8 11 14 26 13 15 27 26 26 27 23 26 16 20 14 10 7 8 2 3 11 18 19 20 21
6 4 2 6 5 3 1 6 5 6 7 7 9 7 6 8 5 3 2 4 10 8 4 15 14 16 19 23 26 27 28 25 24 17 20 14 7 7 5 5 12 18 19 19 19
4 3 3 0 2 6 3 3 6 4 9 8 10 9 11 13 11 6 7 4 12 9 11 7 16 23 20 24 23 28 27 28 28 19 19 20 19 12 4 8 11 17 19 18 18
2 2 1 2 3 5 4 2 6 6 8 6 9 11 5 7 11 14 10 10 5 7 9 5 17 21 25 19 23 26 29 29 28 28 24 19 23 15 6 3 9 12 16 19 20
4 3 4 5 4 7 5 5 6 2 5 6 9 6 6 9 9 12 9 8 5 8 9 11 9 16 21 23 13 28 30 29 28 28 26 26 19 20 12 4 7 14 16 18 20
2 2 5 2 4 4 3 5 3 3 6 5 2 7 12 11 8 12 12 13 15 14 10 7 4 9 19 21 21 19 26 30 27 27 27 25 23 16 13 10 10 12 16 19 20
Wind_Direction
12 11 9 6 3 359 354 350 347 344 339 335 335 335 334 332 330 327 270 97 159 159 153 158 181 194 200 244 241 256 245 63 55 231 110 140 137 108 95 139 108 113 153 145 151
12 9 6 4 0 356 350 344 343 340 336 333 334 333 335 332 320 273 283 221 171 158 167 180 191 190 216 240 209 250 290 38 31 67 134 157 144 131 149 140 142 127 111 143 152
9 7 3 360 356 352 348 344 339 334 332 330 331 332 332 324 278 93 89 131 146 148 203 230 259 210 244 228 177 154 360 24 101 90 132 138 136 145 145 172 165 159 151 156 156
7 4 2 358 353 349 345 340 335 329 324 322 324 329 328 303 283 126 115 113 159 188 253 222 215 239 265 263 161 220 53 69 100 126 128 146 130 149 169 66 147 151 162 160 167
5 2 360 356 352 346 341 337 333 328 320 313 314 327 324 235 251 177 175 145 173 204 245 263 271 305 312 349 164 175 105 101 118 124 116 137 143 118 122 158 149 149 167 169 170
3 1 359 355 350 344 339 335 331 325 318 308 297 301 257 248 141 187 191 191 212 218 246 271 314 326 288 332 276 122 127 122 140 137 153 144 143 181 126 143 140 159 171 173 174
1 359 357 355 349 343 338 333 328 322 319 309 270 213 250 240 196 200 209 227 221 244 278 275 292 284 338 174 154 140 139 143 168 169 158 170 172 151 130 145 158 165 178 177 173
360 357 355 353 348 343 338 331 325 325 328 308 206 203 254 237 239 244 243 250 245 253 262 271 259 279 265 106 187 206 201 202 160 190 150 224 114 134 148 156 165 174 181 182 180
358 356 353 352 348 345 340 328 320 331 18 90 158 237 261 217 236 242 231 234 229 229 225 247 221 235 201 212 205 203 223 226 159 203 153 228 99 151 161 166 170 181 181 187 195
357 354 352 352 347 351 345 335 306 310 325 277 251 229 230 227 226 233 197 217 220 209 205 211 226 217 224 219 228 200 226 202 248 164 217 213 251 161 176 180 180 186 190 193 200
358 353 350 352 349 356 357 325 281 187 309 277 341 258 289 322 257 212 189 186 202 206 207 200 214 215 211 218 254 302 247 249 204 148 221 246 242 168 189 197 185 184 190 197 197
355 352 349 350 351 13 10 58 45 327 303 266 252 257 264 284 282 219 191 202 198 209 212 203 220 216 221 214 228 245 239 243 258 233 225 260 246 200 187 202 195 193 191 196 193
351 352 349 347 0 12 44 53 342 295 262 274 229 244 232 204 234 229 199 212 208 217 211 215 214 220 215 213 217 230 238 243 260 166 228 272 255 191 190 200 201 200 197 198 196
348 348 345 346 337 343 30 345 335 235 273 219 208 226 205 216 239 227 204 208 214 230 222 224 222 206 212 214 211 229 214 254 227 226 256 206 291 182 187 198 199 199 197 196 197
345 346 342 347 316 327 330 327 323 233 280 71 138 72 176 212 50 200 207 215 231 212 214 211 216 206 211 215 205 231 190 220 235 242 272 221 253 253 179 198 203 203 199 197 193
343 343 339 335 306 313 315 313 250 232 237 149 355 196 228 211 239 166 202 217 220 230 225 229 206 210 220 216 212 218 200 217 237 252 247 241 231 249 177 221 203 201 197 197 191
340 338 329 330 332 320 313 249 229 239 116 117 353 327 305 261 212 218 192 198 196 198 206 216 209 222 230 213 208 202 202 214 218 219 241 120 233 251 170 151 202 195 195 191 189
338 339 295 280 324 317 281 228 236 275 240 41 315 298 265 346 223 209 214 202 211 205 192 203 213 203 197 222 194 209 217 227 210 237 220 156 239 217 140 56 209 204 188 184 188
341 330 233 322 316 291 260 227 259 309 20 324 304 264 240 230 296 230 217 215 207 212 229 204 217 186 211 206 209 202 218 226 242 223 274 180 225 261 250 264 229 188 175 181 186
329 312 210 335 300 258 250 258 295 342 325 322 282 322 254 227 267 219 197 244 225 217 227 208 220 194 204 205 226 219 209 222 227 239 221 232 230 249 181 292 179 177 174 176 183
309 289 71 341 274 243 257 295 260 245 306 294 294 288 273 292 288 273 195 67 2 308 230 234 221 195 200 205 200 205 209 218 218 228 230 235 211 223 245 316 186 174 174 175 180
304 289 26 334 257 257 266 2 37 255 249 261 263 273 276 302 289 267 280 19 9 322 236 220 211 235 198 206 218 204 208 208 223 202 244 280 209 108 37 276 177 169 172 174 179
316 304 345 307 276 222 134 256 272 277 258 251 252 231 284 290 292 273 268 5 10 358 299 215 222 209 205 209 206 213 210 210 215 224 204 232 229 118 98 73 176 166 169 173 182
286 286 128 192 334 312 322 269 267 197 273 272 272 278 265 264 252 267 300 325 331 355 310 270 233 225 211 209 199 213 215 214 211 216 211 213 231 163 153 69 173 169 169 173 180
240 87 323 307 140 313 268 323 280 252 220 254 251 242 295 262 242 252 267 329 281 36 340 313 227 223 237 217 207 200 217 219 216 218 224 208 221 222 195 66 156 182 170 174 180
300 279 184 265 277 253 171 217 255 356 280 249 259 352 285 270 290 322 334 297 304 354 347 331 234 239 227 241 235 210 209 219 212 225 222 232 213 224 225 212 145 179 183 191 190
152 215 271 142 246 267 278 269 211 251 259 263 254 283 264 273 325 304 289 282 280 296 313 313 327 226 223 225 230 233 217 210 219 217 221 226 225 230 211 219 218 179 191 200 199
Height
820 817 813 810 806 803 800 797 795 792 789 786 782 780 776 770 766 763 758 761 762 763 766 769 769 767 765 759 758 752 759 765 763 764 768 764 773 775 776 786 787 790 789 801 814
821 817 814 810 806 802 799 795 793 790 787 785 782 777 772 769 765 760 760 760 761 763 767 767 765 765 760 756 754 754 758 760 750 749 763 765 768 776 782 791 796 794 796 807 816
821 817 813 809 805 801 798 794 791 788 785 783 780 778 775 771 764 754 758 759 761 764 766 764 762 761 759 751 752 750 757 750 750 749 752 764 772 770 779 789 790 796 801 807 814
821 817 813 809 804 800 796 793 789 785 782 780 779 777 774 772 775 758 759 760 761 764 765 761 759 758 755 755 748 755 749 747 750 752 757 765 766 774 774 781 782 791 799 805 810
822 817 812 808 803 798 793 789 786 783 780 778 777 776 774 768 758 758 759 760 762 764 762 756 754 752 755 750 751 751 753 751 752 757 758 763 770 777 783 782 784 793 799 803 807
822 817 812 807 801 796 791 786 782 778 776 774 774 775 774 773 755 757 758 760 761 761 757 755 751 749 753 752 753 748 752 757 757 763 764 769 776 775 790 783 789 797 799 801 805
821 817 812 806 800 794 788 783 779 775 772 770 771 772 770 755 755 755 756 758 759 759 756 755 754 753 746 754 747 749 763 762 762 762 767 763 781 778 789 793 799 801 800 801 805
822 817 811 805 799 792 786 780 776 773 769 767 768 772 760 752 752 753 754 755 756 758 758 756 755 752 751 746 752 756 754 768 759 761 763 767 779 783 790 797 804 804 802 802 805
821 816 811 804 797 790 784 777 774 772 770 768 770 768 754 748 748 747 749 749 750 754 755 756 752 749 749 758 761 757 765 767 765 756 761 769 771 781 788 796 803 803 805 807 806
821 816 810 804 796 790 782 775 773 772 771 771 770 770 749 744 743 745 745 747 747 747 754 755 753 756 751 754 772 760 765 758 764 755 761 766 766 776 781 784 796 802 802 804 804
822 816 809 803 797 791 782 776 772 768 768 755 754 744 746 748 746 742 743 745 744 745 756 748 760 761 748 743 737 744 752 757 748 745 759 760 759 762 774 775 779 786 795 796 796
822 817 811 804 797 793 790 788 800 802 780 758 754 754 750 753 749 738 741 742 744 749 740 746 755 736 732 735 743 748 755 757 746 747 754 749 757 748 762 767 767 773 779 783 788
822 817 811 804 799 798 797 800 801 799 784 749 746 744 741 746 742 733 735 732 739 740 734 740 736 729 734 740 752 747 753 752 757 751 748 752 752 748 751 758 759 762 767 774 778
821 817 811 804 802 801 798 800 799 798 773 740 742 735 737 737 736 727 727 728 732 736 729 729 720 729 734 742 740 752 735 742 750 760 763 746 767 745 743 755 756 757 760 764 771
822 817 811 806 806 800 802 799 798 797 775 737 735 734 731 734 716 715 721 724 733 732 727 732 727 730 738 733 726 740 727 740 745 752 752 750 764 732 728 750 748 748 751 755 762
820 815 810 807 805 803 800 798 797 782 769 740 734 735 733 729 724 717 719 718 717 725 723 719 709 715 718 716 717 720 739 742 743 747 769 748 754 734 727 727 729 736 741 747 754
818 813 809 807 804 802 799 794 781 771 736 742 745 741 739 733 729 721 727 728 729 744 740 730 718 714 708 724 716 726 743 770 778 772 770 735 751 726 710 709 709 720 730 738 745
815 810 808 807 805 801 797 786 779 747 746 749 752 744 742 738 728 722 719 725 713 712 718 735 743 719 708 714 726 731 731 752 786 779 754 742 757 730 701 696 696 699 715 729 738
812 809 807 807 803 801 793 781 766 759 771 772 761 750 734 739 744 729 719 713 707 701 718 722 720 700 702 703 707 726 733 713 739 735 748 730 726 706 694 700 697 701 709 723 731
814 807 803 805 803 800 785 780 773 777 777 774 770 752 748 742 744 731 714 710 704 697 691 701 726 699 704 702 699 703 707 739 731 773 773 739 735 728 711 700 702 703 709 719 727
811 800 802 803 801 790 779 772 780 777 780 779 775 770 756 756 749 735 706 731 727 713 695 695 706 706 702 714 713 717 715 717 719 729 750 755 732 691 698 696 701 701 707 715 721
811 796 802 802 792 786 778 783 797 779 777 777 777 773 768 760 751 744 735 733 735 728 715 694 701 713 708 690 688 697 708 711 730 745 728 726 719 678 688 688 689 696 704 711 716
808 802 802 800 783 779 785 786 785 780 777 774 773 771 764 766 763 750 746 738 739 730 720 700 704 718 710 697 691 695 695 695 702 704 736 743 722 677 682 690 687 694 701 709 714
809 795 795 795 797 792 789 783 784 782 783 780 776 771 770 766 756 754 749 742 739 736 737 729 702 698 701 695 687 709 697 691 700 717 717 720 708 695 687 690 694 692 698 706 712
809 802 812 791 790 795 794 792 786 783 781 779 775 773 769 766 757 752 745 748 736 739 728 718 714 695 683 673 681 693 698 692 697 698 712 701 707 688 685 688 691 692 698 705 711
808 806 807 799 800 797 798 785 787 796 788 778 780 774 774 772 761 759 759 753 748 743 740 729 720 702 702 682 684 686 686 686 689 690 691 692 693 674 674 677 689 695 697 704 706
816 816 810 798 793 796 785 786 790 791 787 788 791 793 782 772 769 768 765 763 759 758 754 741 726 721 716 695 693 700 676 681 682 683 685 698 683 671 680 684 685 686 691 696 698